[[{"header":{"parameterUnit":"m.s-1","parameterCategory":1,"la1":30.2991,"la2":30.254,"lo1":-89.0895,"lo2":-89.0444,"dy":0.0017,"dx":0.0017,"nx":28,"ny":28,"refTime":"2023-07-27T09:00:00:Z","depth":0,"parameterNumber":2,"parameterNumberName":"U-component_of_WINDS"},"data":[0,0,0,0,0,0,0,0,0,0,0,0,0,0,0,0,0,0,0,0,0,0,0,0,0,0,0,0,0,0,0,0,0,0,0,0,0,0,0,0,0,0,0,0,0,0,0,0,0,0,0,0,0,0,0,0,0,0,1.18,1.18,0,1.1795,1.1795,1.1795,1.1697,1.1695,1.1692,1.169,1.169,1.1693,1.1695,0,0,0,0,0,0,0,0,0,0,0,0,0,1.1729,1.173,1.18,1.18,1.18,1.1795,1.1795,1.1795,1.1698,1.1695,1.1692,1.1689,1.1689,1.1692,1.1695,0,0,0,0,0,0,0,0,0,0,0,0,0,1.1745,1.1731,1.18,1.1751,1.1746,1.1795,1.1795,1.1795,1.1698,1.1695,1.1691,1.1687,1.1689,1.1692,1.1695,1.1793,0,0,1.1706,1.1708,0,0,0,0,0,0,0,0,1.1745,1.1748,1.1758,1.1754,1.1749,1.1743,1.177,1.1794,1.1699,1.1717,1.169,1.1686,1.1711,1.1713,1.172,1.1793,1.1793,1.1707,1.1709,1.171,1.1711,0,0,0,0,0,0,0,1.1744,1.1748,1.1798,1.1758,1.1753,1.173,1.1728,1.1774,1.1735,1.1715,1.1708,1.1708,1.1708,1.1717,1.1719,1.1793,1.1706,1.171,1.1712,1.1713,1.1942,1.1946,0,0,0,0,0,0,1.1749,1.1748,1.1798,1.1798,1.1737,1.1734,1.1732,1.1749,1.1735,1.1729,1.1712,1.1704,1.1713,1.1715,1.1719,1.183,1.171,1.1713,1.1715,1.1938,1.1943,1.1947,0,0,0,0,0,0,1.1747,1.1754,1.1798,1.1771,1.1775,1.1739,1.1759,1.1751,1.1759,1.1732,1.1725,1.1727,1.171,1.1714,1.1774,1.1829,1.1715,1.1718,1.1933,1.1939,1.1945,1.2054,0,0,0,0,0,0,1.1746,1.1754,1.179,1.1772,1.1776,1.1853,1.1762,1.1753,1.1765,1.1755,1.1745,1.174,1.1707,1.1769,1.1778,1.1831,1.1721,1.1928,1.1936,1.1943,1.2045,1.2063,1.2078,0,0,0,0,0,1.1744,1.1823,1.1793,1.1799,1.1821,1.1856,1.1859,1.1818,1.177,1.1806,1.1788,1.174,1.1821,1.1776,1.1785,1.184,1.1925,1.1934,1.1942,1.2038,1.2059,1.2077,0,0,0,0,0,0,1.1851,1.182,1.1786,1.1861,1.1862,1.184,1.1884,1.1843,1.1859,1.1849,1.1799,1.1798,1.1865,1.1859,1.1809,1.1932,1.1864,1.1875,1.1934,1.1954,1.197,1.197,1.1724,0,0,0,0,0,1.1883,1.1914,1.1885,1.1955,1.1956,1.1921,1.1935,1.1903,1.1902,1.1903,1.1889,1.1892,1.1917,1.1935,1.1958,1.2044,1.2039,1.2086,1.2102,1.2116,1.2126,1.2169,1.2189,1.1976,1.1976,1.1976,0,0,1.1951,1.1937,1.196,1.1976,1.1972,1.2005,1.1922,1.1961,1.1985,1.1909,1.1964,1.1954,1.1953,1.2026,1.2058,1.2023,1.2183,1.2127,1.2138,1.2141,1.218,1.22,1.2218,1.1982,1.1981,1.198,0,0,1.209,1.2084,1.2139,1.2137,1.2131,1.2107,1.212,1.2104,1.2093,1.2147,1.209,1.2119,1.2165,1.2165,1.2172,1.2309,1.2265,1.2318,1.2403,1.2445,1.2462,1.2477,1.2524,1.2542,1.2328,1.2328,1.2328,0,1.2175,1.2221,1.2174,1.2216,1.2224,1.2154,1.221,1.2211,1.2214,1.2222,1.2182,1.2236,1.2231,1.2302,1.2335,1.2343,1.2357,1.2319,1.2463,1.2477,1.249,1.2535,1.2553,1.2335,1.2334,1.2333,1.2333,0,1.2325,1.2358,1.2404,1.2406,1.2419,1.2469,1.2429,1.2448,1.2415,1.2394,1.2449,1.244,1.2458,1.2473,1.2442,1.2539,1.2517,1.2472,1.2402,1.2518,1.2559,1.2576,1.2344,1.2341,1.2339,1.2338,0,0,1.2534,1.2506,1.2524,1.2523,1.2511,1.2536,1.2581,1.2596,1.2613,1.2618,1.2655,1.2694,1.265,1.2658,1.2626,1.2664,1.277,1.2613,1.2612,1.2641,1.2875,1.2909,1.2929,1.2741,1.2744,1.2746,1.2874,0,1.2667,1.2741,1.2699,1.2779,1.2808,1.2741,1.278,1.2778,1.276,1.2782,1.2762,1.279,1.2731,1.2735,1.2769,1.275,1.2816,1.274,1.2775,1.2777,1.2776,1.2951,1.2987,1.3109,1.289,1.2893,1.2895,0,1.2833,1.2841,1.2924,1.2903,1.2914,1.295,1.2959,1.2982,1.2977,1.2961,1.2968,1.2926,1.297,1.2901,1.296,1.2909,1.2921,1.2914,1.2917,1.2919,1.2843,1.2956,1.3147,1.3164,1.292,1.2918,1.2916,0,1.2975,1.3007,1.3059,1.3061,1.3039,1.3066,1.3058,1.3049,1.306,1.3069,1.3075,1.309,1.3098,1.3111,1.3075,1.3028,1.3138,1.3067,1.3126,1.3127,1.3152,1.3151,1.3346,1.3162,1.3161,1.3161,1.3161,0,1.3128,1.3181,1.3122,1.3155,1.3212,1.3163,1.3221,1.3207,1.3199,1.3228,1.3172,1.32,1.3151,1.3175,1.3147,1.3199,1.3204,1.3192,1.3184,1.3197,1.3198,1.3203,1.3194,1.3166,1.3165,1.3164,1.3163,0,1.3296,1.3259,1.3312,1.3286,1.328,1.3323,1.3301,1.3331,1.3307,1.3344,1.335,1.3315,1.334,1.3304,1.3327,1.3308,1.3379,1.3359,1.338,1.3374,1.3434,1.3429,1.3639,1.3664,1.3464,1.3466,1.3468,0,1.3396,1.3434,1.3411,1.3425,1.342,1.3444,1.3453,1.3406,1.3419,1.3415,1.3445,1.3464,1.3477,1.352,1.3497,1.3513,1.3492,1.3565,1.3495,1.3505,1.3492,1.349,1.3493,1.3579,1.3582,1.3584,1.3585,0,1.3576,1.3555,1.357,1.3579,1.3591,1.3597,1.3598,1.3613,1.3563,1.3581,1.3604,1.3614,1.3634,1.3654,1.3664,1.3657,1.3613,1.3607,1.3622,1.3635,1.3645,1.3639,1.3418,1.3603,1.3601,1.36,1.3599,1.3598,1.3712,1.3742,1.3729,1.3748,1.3743,1.3745,1.377,1.3748,1.3766,1.3777,1.3749,1.3779,1.3771,1.3779,1.3777,1.38,1.3769,1.379,1.3795,1.3801,1.3809,1.3642,1.3802,1.3801,1.3801,1.3801,1.38,0,1.3888,1.3875,1.3893,1.3894,1.3909,1.3863,1.3862,1.3877,1.3903,1.3899,1.3912,1.3938,1.3957,1.3934,1.3948,1.3971,1.3951,1.3977,1.3974,1.3973,1.3838,1.3823,1.3992,1.3992,1.3992,1.3992,1.3992,1.3992,1.3981,1.4029,1.4006,1.4051,1.4038,1.4065,1.4067,1.4069,1.4065,1.4095,1.4109,1.4093,1.4081,1.4094,1.4109,1.4102,1.4109,1.4142,1.4128,1.4002,1.3983,1.3965,1.3951,1.4144,1.4144,1.4261,1.4262,1.4263]},{"header":{"parameterUnit":"m.s-1","parameterCategory":1,"la1":30.2991,"la2":30.254,"lo1":-89.0895,"lo2":-89.0444,"dy":0.0017,"dx":0.0017,"nx":28,"ny":28,"refTime":"2023-07-27T09:00:00:Z","depth":0,"parameterNumber":3,"parameterNumberName":"V-component_of_WINDS"},"data":[0,0,0,0,0,0,0,0,0,0,0,0,0,0,0,0,0,0,0,0,0,0,0,0,0,0,0,0,0,0,0,0,0,0,0,0,0,0,0,0,0,0,0,0,0,0,0,0,0,0,0,0,0,0,0,0,0,0,0.1036,0.1035,0,0.0965,0.0964,0.0964,0.0894,0.0893,0.0892,0.0891,0.0818,0.0817,0.0816,0,0,0,0,0,0,0,0,0,0,0,0,0,0.111,0.1109,0.1036,0.1035,0.1034,0.0965,0.0964,0.0963,0.0894,0.0893,0.0892,0.0891,0.0819,0.0817,0.0816,0,0,0,0,0,0,0,0,0,0,0,0,0,0.1062,0.1109,0.1036,0.0992,0.0987,0.0966,0.0964,0.0963,0.0894,0.0893,0.0892,0.089,0.0819,0.0817,0.0816,0.0833,0,0,0.0811,0.081,0,0,0,0,0,0,0,0,0.1065,0.106,0.0999,0.0995,0.0989,0.0937,0.0964,0.0919,0.0895,0.093,0.0891,0.089,0.0859,0.0854,0.0844,0.083,0.0826,0.0811,0.081,0.0809,0.0808,0,0,0,0,0,0,0,0.1069,0.1062,0.1008,0.0998,0.0992,0.0974,0.0966,0.0955,0.0903,0.0926,0.0921,0.0914,0.0856,0.0845,0.0841,0.0825,0.0811,0.0809,0.0808,0.0808,0.082,0.0821,0,0,0,0,0,0,0.1079,0.1066,0.101,0.1006,0.1025,0.0974,0.0965,0.0955,0.0903,0.0893,0.0915,0.0911,0.0849,0.0843,0.0839,0.0854,0.0809,0.0807,0.0806,0.0819,0.082,0.0822,0,0,0,0,0,0,0.1081,0.1075,0.1013,0.1034,0.1025,0.0974,0.0964,0.0955,0.0944,0.0894,0.0884,0.0914,0.0848,0.0841,0.0835,0.0851,0.0807,0.0805,0.0817,0.0819,0.0821,0.0887,0,0,0,0,0,0,0.1083,0.1076,0.1082,0.1035,0.1024,0.1011,0.0965,0.0954,0.0941,0.0935,0.089,0.0882,0.0846,0.0837,0.0833,0.0848,0.0804,0.0816,0.0818,0.0821,0.0883,0.0891,0.0898,0,0,0,0,0,0.1086,0.1104,0.1083,0.1077,0.1031,0.1012,0.1006,0.0965,0.0943,0.0949,0.0916,0.0883,0.085,0.0837,0.0832,0.0846,0.0814,0.0817,0.082,0.088,0.0889,0.0897,0,0,0,0,0,0,0.1154,0.1097,0.1073,0.1076,0.105,0.1001,0.1007,0.0976,0.0956,0.0951,0.09,0.089,0.089,0.0867,0.0855,0.0859,0.0827,0.0829,0.0874,0.0883,0.089,0.0896,0.0803,0,0,0,0,0,0.117,0.1159,0.1109,0.1117,0.1104,0.1058,0.1048,0.1019,0.0989,0.0978,0.0945,0.0917,0.09,0.089,0.0872,0.0879,0.0868,0.0886,0.0894,0.09,0.0902,0.0903,0.0911,0.0832,0.0832,0.0832,0,0,0.1201,0.1168,0.1165,0.1129,0.1105,0.1095,0.1049,0.1041,0.1032,0.0976,0.0968,0.0943,0.0909,0.0909,0.0908,0.089,0.0921,0.0904,0.0909,0.0908,0.0907,0.0915,0.0921,0.0834,0.0833,0.0833,0,0,0.1254,0.1228,0.1231,0.1208,0.1172,0.1141,0.1142,0.1097,0.1078,0.1069,0.1026,0.1016,0.0988,0.0965,0.095,0.0992,0.096,0.0987,0.1026,0.1027,0.1033,0.1039,0.1054,0.1059,0.099,0.099,0.099,0,0.1298,0.1281,0.1236,0.123,0.1215,0.1164,0.1166,0.1145,0.1106,0.1096,0.1077,0.1041,0.1014,0.1008,0.1018,0.1007,0.1006,0.0993,0.1036,0.1041,0.1045,0.1059,0.1065,0.0994,0.0993,0.0993,0.0992,0,0.1337,0.1326,0.1332,0.1295,0.1281,0.1279,0.1233,0.1224,0.1195,0.1166,0.1157,0.1123,0.1097,0.1093,0.1065,0.1082,0.1073,0.1046,0.1013,0.1057,0.1069,0.1074,0.0999,0.0997,0.0996,0.0995,0,0,0.1431,0.1368,0.1371,0.1353,0.1309,0.13,0.1295,0.1269,0.1262,0.1236,0.123,0.1207,0.1182,0.1165,0.1133,0.1135,0.117,0.1107,0.1106,0.112,0.1186,0.1207,0.1214,0.1148,0.1149,0.115,0.1189,0,0.1476,0.1465,0.1424,0.1425,0.1414,0.1364,0.1359,0.1332,0.1304,0.129,0.1258,0.1243,0.1211,0.12,0.1199,0.1166,0.1183,0.1162,0.1142,0.1142,0.1153,0.122,0.1242,0.1281,0.1194,0.1194,0.1195,0,0.1528,0.1505,0.1505,0.146,0.1454,0.1451,0.1423,0.141,0.1377,0.1357,0.1337,0.1302,0.1293,0.1262,0.1249,0.1236,0.1225,0.1208,0.1208,0.1205,0.1172,0.1219,0.1293,0.1299,0.1202,0.1201,0.1201,0,0.1596,0.1565,0.1561,0.1547,0.1495,0.1494,0.1472,0.1438,0.1424,0.14,0.1391,0.1366,0.1352,0.1333,0.1292,0.1273,0.1283,0.1249,0.1266,0.1267,0.1271,0.1271,0.1344,0.1263,0.1263,0.1263,0.1263,0,0.1651,0.1653,0.1591,0.1588,0.1588,0.1541,0.1542,0.1515,0.1485,0.1476,0.1431,0.1423,0.1369,0.1355,0.1322,0.1316,0.131,0.1293,0.1284,0.1297,0.1299,0.129,0.1286,0.1265,0.1264,0.1264,0.1264,0,0.1728,0.1687,0.1679,0.163,0.1617,0.162,0.1578,0.1573,0.1542,0.153,0.1525,0.1476,0.1457,0.1414,0.1383,0.1361,0.1363,0.1347,0.1374,0.1369,0.1388,0.1387,0.1457,0.1464,0.138,0.1381,0.1381,0,0.1766,0.1766,0.1717,0.1708,0.1688,0.1673,0.1659,0.1612,0.1599,0.1561,0.1561,0.1538,0.1517,0.1489,0.145,0.1426,0.1409,0.1436,0.1406,0.1418,0.141,0.141,0.141,0.1443,0.1444,0.1445,0.1446,0,0.1837,0.1817,0.1798,0.1773,0.1758,0.1735,0.171,0.1705,0.1651,0.1639,0.1619,0.1603,0.1571,0.1549,0.1519,0.1495,0.1462,0.1455,0.1458,0.1471,0.1487,0.1478,0.1393,0.1454,0.1453,0.1453,0.1452,0.1452,0.1896,0.1893,0.1858,0.1839,0.1815,0.1793,0.1786,0.1753,0.1736,0.1706,0.1679,0.1662,0.1627,0.1583,0.1562,0.1547,0.153,0.1534,0.1535,0.1537,0.1542,0.1489,0.1541,0.1541,0.1541,0.154,0.154,0,0.1965,0.1939,0.1922,0.1889,0.1874,0.1843,0.1813,0.1802,0.1788,0.1759,0.1739,0.1715,0.1693,0.1652,0.1627,0.1622,0.1606,0.1617,0.1617,0.1612,0.1559,0.1559,0.1631,0.1631,0.1631,0.1631,0.1631,0.1631,0.1999,0.1993,0.1968,0.1949,0.1923,0.1906,0.1892,0.187,0.1847,0.1823,0.1804,0.1778,0.1743,0.1715,0.1693,0.1681,0.1674,0.169,0.1673,0.1624,0.1616,0.1608,0.1608,0.1689,0.1689,0.1728,0.1728,0.1728]}]]